Flag for Canada Weather past 2 weeks in Sault Ste. Marie, Ontario, Canada

Now
63 °F

Passing clouds.


Feels Like: 63 °F
Forecast: N/A
Wind: 20 mph from Northwest

Location: Sault Ste Marie

Current Time: Aug 4, 2015 at 7:11:04 PM

Latest Report: Aug 4, 2015 at 6:00 PM


Visibility: 15 mi

Pressure: 29.94 "Hg

Humidity: 59%

Dew point: 48 °F

Location of Sault Ste. MarieLocation

Historic Weather in Sault Ste. Marie — Graph

°F

Sault Ste. Marie temperature yesterday

Maximum temperature yesterday: 66 °F (at 2:00 PM)
Minimum temperature yesterday: 57 °F (at 11:00 PM)
Average temperature yesterday: 61 °F

Past Weeks' High & Low Weather Summary

 TemperatureHumidityPressure
High90 °F (Jul 28, 3:00 PM)100% (Jul 23, 8:00 AM)30.03 "Hg (Jul 23, 8:00 AM)
Low43 °F (Jul 23, 5:00 AM)31% (Jul 23, 2:00 PM)29.54 "Hg (Aug 2, 7:00 PM)
Average65 °F75%29.85 "Hg
* Reported Jul 20 6:00 PM — Aug 4 6:00 PM, Sault Ste. Marie, Weather by CustomWeather, © 2015

Note: Actual official high and low records may vary slightly from our data, if they occured in-between our weather recording intervals... More about our weather records

Advertising

Sault Ste. Marie weather history for previous 24 hours

 ConditionsComfort  
Time TempWeatherWind HumidityBarometerVisibility
6:00 PM
Tue, Aug 4
63 °FPassing clouds.20 mph59%29.94 "Hg15 mi
5:00 PM63 °FPassing clouds.20 mph64%29.93 "Hg15 mi
4:00 PM64 °FPassing clouds.16 mph60%29.93 "Hg15 mi
3:00 PM64 °FPassing clouds.17 mph64%29.92 "Hg15 mi
2:00 PM63 °FPartly sunny.17 mph68%29.91 "Hg15 mi
1:00 PM63 °FPartly sunny.15 mph73%29.90 "Hg15 mi
12:00 PM63 °FScattered clouds.13 mph73%29.90 "Hg15 mi
11:00 AM61 °FBroken clouds.13 mph77%29.88 "Hg15 mi
10:54 AM61 °FBroken clouds.13 mph77%29.88 "Hg15 mi
10:00 AM59 °FPartly sunny.12 mph82%29.87 "Hg15 mi
9:00 AM59 °FBroken clouds.9 mph82%29.85 "Hg15 mi
8:00 AM59 °FPartly sunny.7 mph82%29.83 "Hg15 mi
7:00 AM59 °FPartly cloudy.8 mph82%29.82 "Hg15 mi
6:00 AM59 °FPartly cloudy.9 mph82%29.81 "Hg15 mi
5:00 AM59 °FPassing clouds.7 mph82%29.80 "Hg15 mi
4:00 AM57 °FPassing clouds.6 mph88%29.80 "Hg15 mi
3:00 AM59 °FPassing clouds.8 mph82%29.80 "Hg15 mi
2:00 AM59 °FPartly cloudy.8 mph82%29.80 "Hg15 mi
1:00 AM59 °FPassing clouds.8 mph82%29.80 "Hg15 mi
12:00 AM57 °FPassing clouds.5 mph88%29.80 "Hg15 mi
11:00 PM
Mon, Aug 3
57 °FPassing clouds.No wind82%29.80 "Hg15 mi
10:00 PM59 °FBroken clouds.5 mph77%29.80 "Hg15 mi
9:00 PM59 °FBroken clouds.7 mph77%29.79 "Hg15 mi
8:00 PM61 °FPartly sunny.12 mph77%29.78 "Hg15 mi
7:00 PM63 °FPartly sunny.14 mph73%29.77 "Hg15 mi
Weather by CustomWeather, © 2015

See weather overviewHow to use our weather pages